カタログに戻る

JILIN-1 GAOFEN 06A 12 XING

運用中科学SSO
NORAD 57023·PAYLOAD·🇨🇳 China
この衛星名は、まだ公式ソースで確認されていません。

打ち上げ Jun 15, 2023 から Taiyuan Satellite Launch Center

Loading…

次のパス (今後24時間)

TLE

最新Source: Space-Track

元期: Sep 14, 2026, 13:22 UTC

1 57023U 23085V   26257.55703230  .00012217  00000-0  35222-3 0  9992
2 57023  97.5019  10.6371 0006538 110.2432 249.9515 15.35849453180408

AllMySatでJILIN-1 GAOFEN 06A 12 XINGをリアルタイム追跡

Download on the App Store